Location: *
(37.5724°S, 58.0067°E)
Time: 08:22:03
(UTC+00:00)

Envisat - Pass Details

Date: 30 November 2022
Orbit: 763 x 765 km, 98.2° (Epoch: 07 February)

Event Time Altitude Azimuth Distance (km) Brightness Sun altitude
Rises 23:54:08 0° 1° (N) 3,220 5.9 -8.7°
Reaches altitude 10° 23:56:28 10° 356° (N) 2,302 5.1 -8.3°
Maximum altitude 00:01:25 52° 280° (W) 960 3.2 -7.5°
Drops below altitude 10° 00:06:26 10° 203° (SSW) 2,331 5.7 -6.7°
Sets 00:08:49 0° 198° (SSW) 3,265 6.5 -6.3°
